📊 Raw Sensor Data

Showing records 33151 to 33175 of 84,755 total

ID Distance (ft) Battery V Battery A Int Temp (°F) Int Humid (%) Ext Temp (°F) Solar V RSSI SNR Time Stamp
51617 13.5 4.02 5 92 47 82 5.10 -73 8 09/10/2025 05:00 PM
51616 14.6 4.07 5 93 47 82 5.10 -72 7 09/10/2025 04:45 PM
51615 14.7 4.03 5 95 45 82 5.10 -72 8 09/10/2025 04:30 PM
51614 14.7 4.12 5 95 45 83 5.10 -72 8 09/10/2025 04:15 PM
51613 14.7 4.02 0 94 45 83 5.10 -72 7 09/10/2025 04:00 PM
51612 14.7 4.02 5 94 45 83 5.10 -72 8 09/10/2025 03:45 PM
51611 14.7 4.07 5 96 44 84 5.10 -72 7 09/10/2025 03:30 PM
51610 14.7 4.02 5 97 43 85 5.10 -73 8 09/10/2025 03:15 PM
51609 14.7 4.02 0 97 43 82 5.10 -72 8 09/10/2025 03:00 PM
51608 14.7 4.02 5 96 43 85 5.10 -74 8 09/10/2025 02:45 PM
51607 14.7 4.02 5 98 41 86 5.10 -72 8 09/10/2025 02:30 PM
51606 14.7 4.02 5 96 41 83 5.10 -74 8 09/10/2025 02:15 PM
51605 14.7 4.02 0 95 41 82 5.10 -74 8 09/10/2025 02:00 PM
51604 14.7 4.02 0 92 42 83 5.10 -74 8 09/10/2025 01:45 PM
51603 14.7 4.05 0 91 41 82 5.10 -72 8 09/10/2025 01:30 PM
51602 14.7 4.01 0 91 40 82 5.10 -72 8 09/10/2025 01:15 PM
51601 14.6 4.06 0 87 42 82 5.10 -73 9 09/10/2025 01:00 PM
51600 14.6 4.01 5 82 44 78 5.10 -73 7 09/10/2025 12:45 PM
51599 14.6 4.01 5 82 43 78 5.10 -73 8 09/10/2025 12:15 PM
51598 14.6 4.07 0 79 44 75 5.10 -72 8 09/10/2025 12:00 PM
51597 14.7 4.01 0 81 43 77 5.10 -73 7 09/10/2025 11:45 AM
51596 14.6 4.01 5 79 43 78 5.10 -72 8 09/10/2025 11:30 AM
51595 14.6 4.01 5 79 42 75 5.10 -72 8 09/10/2025 11:15 AM
51594 14.6 4.01 5 77 42 75 5.10 -72 8 09/10/2025 11:00 AM
51593 14.6 4.01 5 75 43 73 5.10 -72 8 09/10/2025 10:45 AM